Location: Johnson City
(36.3130°N, 82.3540°W)
Time: 05:49:08
(UTC-05:00)

ISS - Visible Passes

Search period start: 17 February 2019 00:00
Search period end: 27 February 2019 00:00
Orbit: 403 x 411 km, 51.6° (Epoch: 17 February)

Date Brightness Start Highest point End Pass type
(mag) Time Alt. Az. Time Alt. Az. Time Alt. Az.
22 Feb -1.5 05:57:27 10° S 06:00:09 24° SE 06:02:51 10° ENE visible
23 Feb -0.8 05:07:34 10° SSE 05:08:51 12° SE 05:10:13 10° ESE visible
23 Feb -3.6 06:41:50 10° WSW 06:45:01 53° NW 06:48:14 10° NE visible
24 Feb -3.7 05:51:46 25° SW 05:53:31 73° SE 05:56:47 10° NE visible
25 Feb -1.8 05:02:57 28° E 05:02:57 28° E 05:05:05 10° ENE visible
25 Feb -2.4 06:35:59 10° W 06:38:40 23° NNW 06:41:21 10° NNE visible
26 Feb -3.3 05:46:40 38° NW 05:47:01 39° NW 05:50:07 10° NE visible
